Overview Statistics Trail Chart Weather Telemetry Raw packets
 

This is the latest recevied weather packets stored in our database for station/object K6CED. If no packets are shown the sender has not sent any weather packets the latest 10 day(s).

<< 82 83 84 85 86 87 88 >>
Time Temp. Humidity Pressure Rain* Wind** Luminosity Snow
1788066861 25° C 69% 1014.6 hPa 0 mm - 0 W/m² -
1788066560 25° C 68% 1014.8 hPa 0 mm - 0 W/m² -
1788066256 25° C 68% 1014.9 hPa 0 mm - 0 W/m² -
1788065954 25° C 68% 1014.7 hPa 0 mm - 0 W/m² -
1788065654 25° C 68% 1014.6 hPa 0 mm - 0 W/m² -
1788065348 25° C 68% 1014.6 hPa 0 mm - 0 W/m² -
1788065044 25° C 67% 1014.6 hPa 0 mm - 0 W/m² -
1788064739 25.56° C 66% 1014.5 hPa 0 mm - 0 W/m² -
1788064433 25.56° C 65% 1014.4 hPa 0 mm - 0 W/m² -
1788064131 26.11° C 63% 1014.3 hPa 0 mm - 0 W/m² -
1788063826 26.67° C 61% 1014.3 hPa 0 mm - 0 W/m² -
1788063525 26.11° C 61% 1014.4 hPa 0 mm - 0 W/m² -
1788063219 26.67° C 60% 1014.4 hPa 0 mm - 0 W/m² -
1788062914 26.67° C 59% 1014.3 hPa 0 mm - 0 W/m² -
1788062610 27.22° C 58% 1014.2 hPa 0 mm - 0 W/m² -
1788062309 27.22° C 56% 1014.2 hPa 0 mm - 0 W/m² -
1788062009 27.22° C 56% 1014.1 hPa 0 mm - 0 W/m² -
1788061704 27.22° C 56% 1013.9 hPa 0 mm - 0 W/m² -
1788061404 27.22° C 56% 1014.2 hPa 0 mm - 0 W/m² -
1788061099 27.78° C 55% 1013.9 hPa 0 mm - 0 W/m² -
1788060793 27.78° C 55% 1013.8 hPa 0 mm - 0 W/m² -
1788060489 27.78° C 55% 1013.7 hPa 0 mm - 0 W/m² -
1788060183 27.78° C 54% 1013.6 hPa 0 mm - 0 W/m² -
1788059878 27.78° C 54% 1013.5 hPa 0 mm - 0 W/m² -
1788059574 27.78° C 54% 1013.5 hPa 0 mm - 0 W/m² -

* Rain latest hour (hover to see other rain measurements)
** Current wind speed in m/s (hover to see current wind gust speed)